Vorticity
5 3 2 2 1 2 2 3 4 6 8 11 14 16 16 14 10 7 6 4 2 -2 -4 -5 -3 -0 2 2 3 4 5 6 6 7 8 8 9 9 9 10 10 10 10 10 10 9 9 9 9 8 8 8 8 8 8 8 7 7 7 7 7 7 7 7 6 6 6 6 7
8 6 5 4 2 2 1 2 2 3 4 5 8 11 13 14 13 11 9 7 6 4 1 -2 -2 -2 -0 2 2 3 3 4 4 5 5 6 7 7 7 8 8 9 9 9 9 9 9 9 9 8 8 8 8 8 8 8 7 7 7 7 7 7 6 7 6 6 6 6 6
12 10 7 5 4 2 1 1 1 1 2 2 3 5 7 8 8 7 6 4 4 2 1 -2 -3 -3 -1 1 2 3 3 3 3 3 4 4 4 5 5 6 6 7 7 8 8 8 8 8 8 8 8 8 8 8 7 7 7 7 7 7 7 6 6 7 6 6 6 6 6
15 13 11 8 6 4 3 3 2 2 1 1 1 1 2 3 4 4 3 2 -1 -3 -4 -3 -2 -2 -1 1 2 3 3 3 2 2 3 3 3 3 4 4 5 6 6 7 7 7 7 7 7 8 7 7 7 7 7 7 7 7 7 7 6 6 6 6 6 6 6 6 6
17 16 14 13 10 8 7 6 5 4 3 2 1 1 0 1 2 2 1 -2 -3 -3 -2 -1 -0 0 1 1 2 2 3 3 2 2 2 2 2 2 3 3 4 5 5 6 6 6 7 7 7 7 7 7 7 7 6 6 6 6 6 6 6 6 6 6 6 6 6 6 6
16 17 17 16 14 13 11 8 7 6 6 5 3 2 2 1 1 0 -1 -1 1 2 3 2 2 3 3 2 2 3 3 3 2 2 2 2 2 2 3 3 4 4 4 5 5 6 6 6 6 6 6 6 6 6 6 6 6 6 6 6 6 6 6 6 6 6 6 6 6
16 16 17 17 17 16 15 13 11 10 9 8 6 6 6 5 3 2 2 3 5 5 5 4 4 4 4 4 4 4 4 3 3 3 2 3 3 3 3 3 3 4 4 4 5 5 5 5 5 5 6 6 6 6 6 6 6 5 5 6 6 6 6 6 6 6 6 6 6
14 15 15 16 16 17 17 16 15 14 13 12 10 10 10 9 7 6 6 6 6 6 6 6 5 5 5 5 5 5 5 4 4 4 4 3 4 4 4 4 4 4 4 4 4 4 5 5 5 5 5 5 5 5 6 6 6 6 6 5 6 6 6 6 6 6 6 6 7
13 13 13 14 15 16 16 16 16 16 15 14 14 13 13 12 11 10 9 8 8 8 8 7 6 6 6 6 6 6 6 6 5 5 5 5 5 5 5 5 5 5 4 4 4 4 4 5 5 5 5 5 5 5 6 6 6 6 6 6 6 6 6 7 6 7 7 7 7
17 15 14 14 15 15 16 16 17 17 16 16 16 15 15 14 13 12 11 11 11 10 10 9 8 8 8 7 7 7 7 7 7 7 8 8 7 7 7 6 6 6 5 5 5 5 5 5 5 5 5 5 5 6 6 6 6 6 6 7 6 6 7 7 7 7 8 8 8
23 20 18 16 16 16 16 16 16 17 17 17 18 18 18 18 17 16 15 15 14 13 13 12 11 11 10 10 10 10 10 10 10 10 10 10 10 9 8 8 7 7 7 7 7 7 6 6 6 6 6 6 6 6 6 7 7 7 7 7 7 7 8 8 9 9 9 9 9
25 24 21 18 17 15 14 14 15 15 16 17 18 18 19 19 19 19 18 18 17 16 15 15 15 14 13 13 13 13 13 13 13 13 13 12 11 11 10 10 9 9 9 9 8 8 8 8 7 7 7 8 8 8 8 8 8 8 9 9 9 9 9 9 10 10 10 10 10
22 23 23 21 18 16 13 12 12 13 13 15 16 18 18 19 19 19 19 19 18 18 17 17 17 16 16 16 16 15 15 15 15 14 14 13 13 12 12 11 11 11 11 11 11 10 10 10 10 10 10 10 10 10 10 10 10 10 10 10 11 11 11 11 11 11 11 11 11
15 17 19 21 21 20 17 15 13 12 11 12 13 15 17 18 18 19 19 19 19 18 18 17 17 17 17 17 16 16 16 16 16 15 15 15 14 14 14 14 13 13 13 13 13 13 12 12 12 12 12 12 12 12 12 12 12 12 12 12 12 12 12 12 12 11 11 12 12
10 11 12 15 18 20 20 19 17 14 12 10 11 12 14 16 17 18 18 19 19 18 18 18 17 17 17 17 16 16 16 16 16 16 16 16 16 16 16 16 16 15 15 15 15 14 14 13 13 13 13 13 13 13 13 13 13 13 13 13 13 12 12 12 12 12 12 12 12
10 9 8 9 11 13 16 17 17 16 13 10 9 10 11 13 15 17 18 18 19 19 19 19 18 18 17 17 16 16 16 16 16 16 17 17 17 17 17 17 16 16 16 15 15 15 15 14 14 13 13 13 13 13 13 13 13 13 13 13 13 13 12 12 12 12 13 13 13
13 12 10 9 8 8 9 11 13 14 13 11 9 7 7 9 12 14 16 17 18 18 19 19 18 17 17 17 17 16 16 16 16 16 16 16 16 16 16 16 16 15 14 14 14 14 15 15 15 14 14 14 13 13 13 13 13 13 13 13 13 13 13 13 13 13 13 13 14
15 15 14 13 11 9 8 7 8 10 11 11 9 7 6 6 8 10 12 14 15 16 16 16 16 15 15 14 15 15 15 14 14 15 15 15 14 14 14 14 14 14 14 14 14 14 14 14 14 14 14 14 13 13 13 12 12 12 12 13 13 13 13 13 13 13 13 13 13
15 16 16 16 14 13 11 9 8 7 8 10 10 9 7 6 6 7 9 10 11 12 12 12 12 12 12 12 12 12 13 12 12 12 13 13 12 12 12 12 13 13 13 14 14 13 13 13 13 13 13 13 13 13 13 13 13 13 13 13 13 13 13 13 12 12 12 11 10
13 14 16 17 16 15 14 12 10 8 7 7 9 10 9 8 7 6 6 8 9 10 10 10 10 10 10 10 10 10 10 10 11 11 11 11 11 11 11 11 11 12 12 13 12 12 12 12 12 12 12 12 12 13 13 13 13 13 12 12 12 12 11 11 10 10 10 9 8
12 12 14 16 16 16 16 15 13 11 9 8 8 9 10 10 9 7 6 8 8 9 9 9 9 8 8 8 8 8 8 9 10 10 10 10 10 10 10 10 10 10 10 10 11 11 11 11 11 11 12 12 12 12 12 12 11 11 11 11 10 10 9 9 9 8 8 7 7
12 11 12 14 16 17 17 16 15 14 12 11 10 10 11 11 10 9 8 8 8 8 9 9 8 8 7 8 8 8 9 9 9 10 10 10 10 9 9 8 8 8 8 9 9 9 10 10 10 11 11 11 11 11 10 10 10 9 9 9 8 8 8 8 8 8 8 8 8
13 11 11 13 15 16 17 18 17 16 15 15 14 13 12 12 11 10 9 8 8 8 9 9 9 9 9 9 10 10 10 10 10 10 10 10 10 9 8 7 6 7 7 8 8 9 9 10 10 10 10 10 10 10 10 9 9 9 8 8 8 8 9 9 9 9 10 10 10
14 12 11 11 13 14 15 16 16 17 17 17 17 16 15 14 13 12 11 10 10 10 10 10 10 10 11 11 12 11 11 10 10 10 10 10 10 8 7 6 6 6 7 7 8 9 9 10 10 10 10 10 10 10 10 10 10 10 10 11 11 11 12 12 12 12 12 13 13
15 13 11 10 10 11 12 13 14 15 16 17 17 17 16 16 15 13 13 12 12 12 12 11 12 12 12 12 12 12 12 11 10 10 11 11 10 9 7 6 6 6 7 8 9 10 10 10 10 11 11 11 12 12 12 12 13 13 13 14 14 14 15 15 15 15 15 15 16
16 15 13 10 9 9 9 10 11 12 13 14 15 16 16 16 15 15 14 14 14 13 13 13 13 13 13 13 12 12 11 11 11 11 11 11 11 10 8 7 7 7 8 9 10 10 11 11 12 12 13 13 14 14 15 16 16 16 17 17 17 16 16 16 16 17 17 17 17
15 15 14 12 10 9 8 8 9 9 10 11 12 13 13 14 15 15 16 15 15 14 14 14 14 14 13 13 12 11 10 10 11 11 11 11 10 10 9 9 9 9 9 10 10 11 12 13 14 14 15 15 16 16 17 18 18 19 19 18 18 17 16 16 16 16 17 18 17
14 15 14 14 12 10 9 8 8 7 8 8 9 9 10 11 12 13 14 14 15 15 15 15 15 14 13 13 12 10 10 9 10 11 12 12 11 10 10 10 10 10 10 10 11 13 14 15 16 16 17 17 17 18 18 18 18 18 18 18 17 17 16 16 16 16 16 16 15
13 14 14 14 13 12 10 9 8 8 7 7 7 7 8 9 10 11 12 13 13 14 15 15 15 14 14 13 12 10 10 10 11 13 14 14 13 12 11 11 11 11 11 12 13 14 15 16 16 17 17 17 18 18 18 18 18 17 17 17 17 17 17 16 16 15 14 13 12
12 13 13 14 13 12 11 10 9 8 8 7 7 7 7 8 9 10 11 12 13 13 13 14 14 14 14 13 12 12 12 12 13 14 14 14 14 13 13 12 11 12 12 13 14 15 16 16 16 16 17 17 18 18 18 17 17 17 17 16 16 15 15 14 13 13 12 11 11
11 12 13 13 13 13 12 11 10 9 9 8 8 8 8 8 8 9 10 11 12 13 13 14 14 14 14 14 13 13 13 14 14 14 13 13 13 13 13 12 12 13 13 14 14 15 15 15 15 16 16 16 17 17 16 16 16 15 15 14 13 13 12 11 11 11 10 10 10
11 11 12 13 13 13 12 11 10 10 10 9 9 8 8 8 8 8 9 10 11 12 13 14 14 14 14 15 14 14 14 13 13 13 12 12 12 13 13 13 13 13 13 14 14 14 14 14 15 15 15 15 15 15 14 14 13 13 12 12 11 10 10 10 10 10 10 9 9
12 11 11 12 12 12 12 12 11 10 10 10 9 9 8 8 8 8 9 9 10 11 12 13 13 14 14 15 15 14 13 13 12 12 12 12 12 13 13 13 13 13 13 13 13 13 13 14 14 13 13 13 13 12 12 12 11 11 10 10 9 9 9 9 9 9 9 9 9
14 13 12 12 12 12 12 12 11 11 10 10 10 9 9 8 8 9 9 9 10 11 12 12 13 14 14 14 14 14 13 13 12 12 12 12 12 12 12 12 12 12 12 12 12 13 13 13 13 12 12 11 11 11 10 10 10 10 10 9 9 9 9 9 9 9 9 8 8
16 14 13 12 12 12 12 12 12 11 11 11 10 10 9 9 9 9 10 10 10 11 11 12 13 13 14 14 14 13 13 13 13 12 12 12 11 11 11 11 11 11 11 11 12 12 12 12 11 11 10 10 10 10 10 10 10 10 9 9 9 9 8 8 8 8 8 8 7
17 16 14 13 13 12 12 12 12 12 11 11 11 10 10 9 9 10 10 10 10 11 11 12 13 13 14 14 14 14 13 12 12 12 11 10 10 10 10 10 11 11 11 11 11 11 11 11 10 10 10 9 9 9 9 9 10 10 9 9 9 9 8 8 8 8 7 7 7
18 17 16 14 13 13 13 12 12 12 12 11 11 10 10 10 10 10 10 10 10 11 12 12 13 13 14 14 14 13 12 12 11 11 10 9 9 9 10 10 10 11 11 11 11 11 11 10 10 10 10 9 9 9 9 10 10 10 9 9 9 8 8 8 8 7 7 6 6
18 18 16 15 14 14 13 13 13 13 12 12 11 10 10 10 10 10 10 11 11 11 12 12 13 14 14 14 13 12 12 10 10 9 9 9 8 9 10 10 11 11 11 11 11 11 10 10 10 10 9 9 9 9 10 10 10 10 9 9 9 8 8 8 7 7 6 6 6
19 18 17 16 15 15 14 14 14 13 12 11 10 10 10 10 10 11 11 11 11 11 12 13 14 14 14 13 12 11 10 9 9 9 9 9 9 9 10 10 11 11 11 11 11 10 10 10 10 10 9 9 9 10 10 10 10 10 9 9 8 8 8 7 7 6 6 6 5
19 18 17 17 16 16 15 15 14 13 12 11 10 10 10 11 11 11 11 11 11 11 12 13 13 13 13 12 11 11 10 9 8 8 9 9 10 10 10 10 11 12 11 11 10 10 10 10 10 9 9 9 9 10 10 10 10 10 9 9 8 8 7 7 7 6 6 5 5
19 18 17 16 16 15 15 14 13 11 10 10 10 10 10 11 12 12 12 12 12 11 12 12 13 13 12 12 11 10 10 9 9 9 9 10 10 11 11 11 11 11 11 10 10 10 9 9 9 9 9 9 10 10 10 10 10 9 9 8 8 8 7 6 6 6 6 6 5
Height
3049 3049 3050 3051 3052 3053 3054 3055 3056 3057 3059 3059 3061 3062 3064 3065 3066 3068 3069 3069 3070 3071 3072 3072 3072 3072 3073 3073 3074 3074 3075 3076 3077 3077 3078 3079 3079 3080 3081 3081 3082 3083 3083 3084 3084 3085 3086 3086 3086 3087 3087 3088 3089 3089 3090 3090 3091 3092 3092 3093 3093 3094 3094 3094 3095 3095 3095 3096 3096
3046 3047 3048 3049 3050 3051 3052 3053 3054 3055 3056 3057 3059 3060 3061 3063 3064 3065 3066 3067 3068 3069 3069 3070 3071 3071 3071 3072 3072 3073 3074 3074 3075 3075 3076 3077 3078 3078 3079 3079 3080 3080 3081 3082 3082 3083 3084 3084 3084 3085 3085 3086 3087 3087 3088 3088 3089 3089 3090 3090 3091 3092 3092 3092 3093 3093 3093 3094 3094
3044 3045 3046 3047 3048 3049 3049 3051 3052 3053 3054 3055 3056 3057 3059 3060 3061 3063 3064 3064 3065 3066 3067 3068 3069 3069 3070 3070 3071 3071 3072 3072 3073 3074 3074 3075 3075 3076 3077 3077 3078 3079 3079 3080 3080 3081 3081 3082 3082 3083 3084 3084 3084 3085 3086 3086 3087 3087 3088 3088 3089 3089 3089 3090 3090 3091 3091 3091 3091
3042 3043 3044 3044 3045 3046 3047 3048 3049 3050 3052 3053 3054 3055 3056 3057 3058 3059 3060 3061 3063 3064 3064 3065 3066 3067 3067 3068 3069 3069 3070 3070 3071 3072 3072 3073 3074 3074 3075 3075 3076 3076 3077 3078 3078 3079 3079 3080 3080 3081 3081 3082 3082 3083 3084 3084 3084 3085 3085 3086 3086 3087 3087 3088 3088 3088 3089 3089 3089
3040 3041 3042 3043 3043 3044 3045 3046 3047 3048 3049 3050 3051 3052 3053 3054 3055 3056 3058 3059 3060 3060 3061 3062 3063 3064 3064 3065 3066 3067 3068 3068 3069 3070 3070 3071 3072 3072 3073 3073 3074 3074 3075 3075 3076 3076 3077 3078 3078 3079 3079 3080 3080 3081 3081 3082 3082 3082 3083 3083 3084 3084 3085 3085 3085 3086 3086 3086 3087
3038 3039 3040 3041 3041 3042 3043 3044 3045 3046 3047 3048 3049 3050 3050 3051 3053 3054 3055 3056 3057 3057 3058 3059 3060 3061 3062 3063 3064 3064 3065 3066 3067 3067 3068 3069 3069 3070 3071 3071 3072 3072 3073 3074 3074 3074 3075 3075 3076 3076 3077 3077 3078 3078 3079 3079 3080 3080 3080 3081 3081 3082 3082 3083 3083 3084 3084 3084 3084
3036 3037 3038 3039 3039 3040 3041 3042 3043 3044 3044 3046 3047 3047 3048 3049 3050 3051 3052 3053 3054 3055 3055 3056 3057 3058 3059 3060 3061 3062 3063 3064 3064 3065 3066 3067 3067 3068 3069 3069 3070 3070 3071 3071 3072 3072 3072 3073 3074 3074 3074 3075 3075 3076 3076 3077 3077 3078 3078 3079 3079 3079 3080 3080 3080 3081 3081 3082 3082
3034 3035 3036 3037 3037 3038 3039 3040 3041 3042 3043 3044 3044 3045 3045 3047 3048 3049 3049 3050 3051 3052 3053 3053 3054 3055 3056 3057 3058 3059 3060 3061 3062 3062 3063 3064 3065 3066 3066 3067 3067 3068 3068 3069 3069 3070 3070 3071 3071 3072 3072 3073 3073 3074 3074 3074 3075 3075 3076 3076 3076 3077 3077 3078 3078 3079 3079 3079 3079
3032 3033 3034 3034 3035 3036 3037 3038 3039 3040 3040 3041 3042 3042 3043 3044 3045 3046 3047 3048 3049 3049 3050 3051 3052 3053 3054 3055 3056 3057 3058 3059 3059 3060 3061 3061 3062 3063 3064 3064 3065 3065 3066 3066 3067 3067 3068 3068 3069 3069 3069 3070 3071 3071 3072 3072 3073 3073 3073 3074 3074 3074 3075 3075 3076 3076 3077 3077 3077
3030 3031 3032 3033 3034 3034 3035 3036 3037 3038 3039 3039 3040 3040 3041 3042 3043 3044 3044 3045 3046 3047 3048 3049 3049 3050 3051 3052 3053 3054 3055 3056 3057 3057 3058 3059 3059 3060 3061 3062 3062 3063 3063 3064 3064 3065 3065 3066 3066 3067 3067 3068 3068 3069 3069 3070 3070 3070 3071 3071 3072 3072 3072 3073 3073 3074 3074 3074 3075
3029 3029 3030 3031 3032 3032 3033 3034 3035 3036 3037 3037 3038 3039 3039 3040 3041 3042 3042 3043 3044 3045 3045 3046 3047 3048 3049 3050 3051 3052 3053 3053 3054 3054 3055 3056 3057 3058 3058 3059 3059 3060 3061 3061 3062 3062 3063 3063 3064 3064 3064 3065 3066 3066 3067 3067 3068 3068 3068 3069 3069 3070 3070 3070 3071 3071 3072 3072 3072
3028 3028 3029 3029 3030 3031 3031 3032 3033 3034 3035 3036 3036 3037 3038 3038 3039 3039 3040 3041 3042 3043 3043 3044 3045 3046 3046 3047 3048 3049 3050 3051 3051 3052 3053 3053 3054 3055 3055 3056 3057 3057 3058 3058 3059 3059 3060 3061 3061 3062 3062 3063 3063 3064 3064 3065 3065 3065 3066 3066 3067 3067 3068 3068 3069 3069 3069 3069 3070
3027 3027 3028 3028 3029 3029 3029 3030 3031 3032 3033 3034 3034 3035 3035 3036 3037 3037 3038 3039 3039 3040 3041 3042 3043 3043 3044 3045 3046 3047 3047 3048 3049 3049 3050 3051 3051 3052 3053 3053 3054 3054 3055 3055 3056 3057 3057 3058 3059 3059 3059 3060 3061 3061 3062 3062 3063 3063 3064 3064 3064 3065 3065 3066 3066 3066 3067 3067 3068
3025 3026 3026 3027 3027 3028 3028 3029 3029 3030 3031 3032 3032 3033 3033 3034 3034 3035 3036 3037 3037 3038 3039 3040 3040 3041 3042 3043 3044 3044 3045 3046 3046 3047 3048 3048 3049 3049 3050 3050 3051 3052 3052 3053 3054 3054 3055 3055 3056 3057 3057 3058 3058 3059 3059 3060 3060 3061 3061 3062 3062 3063 3063 3063 3064 3064 3064 3065 3065
3024 3025 3025 3026 3026 3026 3027 3027 3028 3029 3029 3030 3031 3031 3032 3032 3033 3034 3034 3035 3035 3036 3037 3038 3038 3039 3040 3041 3041 3042 3043 3044 3044 3045 3045 3046 3046 3047 3048 3048 3049 3049 3050 3050 3051 3052 3052 3053 3054 3054 3055 3055 3056 3056 3057 3057 3058 3058 3059 3059 3060 3060 3061 3061 3061 3062 3062 3063 3063
3024 3024 3024 3024 3025 3025 3026 3026 3027 3028 3028 3029 3029 3030 3031 3031 3032 3032 3033 3033 3034 3034 3035 3036 3036 3037 3038 3039 3039 3040 3041 3041 3042 3043 3043 3044 3044 3045 3045 3046 3046 3047 3048 3048 3049 3049 3050 3050 3051 3052 3052 3053 3053 3054 3054 3055 3055 3056 3057 3057 3058 3058 3058 3059 3059 3060 3060 3060 3061
3023 3023 3023 3024 3024 3024 3024 3025 3026 3026 3027 3028 3028 3029 3029 3030 3030 3031 3031 3032 3032 3033 3034 3034 3035 3035 3036 3037 3038 3038 3039 3039 3040 3041 3041 3042 3042 3043 3043 3044 3044 3045 3045 3046 3046 3047 3048 3048 3049 3049 3050 3050 3051 3052 3052 3053 3053 3054 3054 3055 3055 3056 3056 3056 3057 3058 3058 3058 3059
3022 3022 3022 3022 3023 3023 3023 3024 3024 3025 3026 3026 3027 3028 3028 3029 3029 3030 3030 3031 3031 3032 3032 3033 3034 3034 3035 3035 3036 3037 3037 3038 3038 3039 3039 3040 3040 3041 3042 3042 3043 3043 3044 3044 3045 3045 3046 3046 3047 3047 3048 3049 3049 3049 3050 3051 3051 3052 3052 3053 3053 3054 3054 3054 3055 3055 3056 3056 3057
3020 3020 3021 3021 3022 3022 3022 3023 3023 3024 3024 3025 3026 3026 3027 3027 3028 3029 3029 3030 3030 3030 3031 3032 3032 3033 3034 3034 3034 3035 3036 3036 3037 3037 3038 3038 3039 3039 3040 3040 3041 3041 3042 3042 3043 3044 3044 3044 3045 3045 3046 3046 3047 3048 3048 3049 3049 3049 3050 3050 3051 3051 3052 3052 3053 3054 3054 3054 3055
3019 3019 3019 3020 3020 3021 3021 3022 3022 3023 3023 3024 3024 3025 3025 3026 3027 3027 3028 3029 3029 3029 3030 3030 3031 3032 3032 3033 3033 3034 3034 3035 3035 3036 3036 3037 3037 3038 3038 3039 3039 3040 3040 3041 3041 3042 3042 3043 3043 3044 3044 3044 3045 3046 3046 3047 3047 3048 3048 3049 3049 3049 3050 3051 3051 3052 3052 3053 3053
3018 3018 3018 3018 3019 3019 3019 3020 3021 3021 3022 3022 3023 3023 3024 3024 3025 3026 3027 3027 3028 3028 3029 3029 3030 3030 3031 3031 3032 3032 3033 3033 3034 3034 3035 3035 3036 3036 3037 3037 3038 3038 3039 3039 3040 3040 3041 3041 3042 3042 3043 3043 3044 3044 3044 3045 3045 3046 3046 3047 3048 3048 3049 3049 3049 3050 3051 3051 3052
3016 3017 3017 3017 3017 3018 3018 3019 3019 3019 3020 3020 3021 3021 3022 3023 3024 3024 3025 3025 3026 3027 3027 3028 3028 3029 3029 3030 3030 3031 3031 3032 3032 3033 3033 3034 3034 3035 3035 3036 3036 3037 3038 3038 3039 3039 3039 3040 3040 3040 3041 3041 3042 3042 3043 3044 3044 3044 3045 3045 3046 3046 3047 3048 3048 3049 3049 3050 3050
3015 3015 3015 3016 3016 3016 3017 3017 3017 3018 3018 3019 3019 3020 3020 3021 3022 3022 3023 3024 3024 3025 3025 3026 3027 3027 3028 3028 3029 3029 3029 3030 3030 3031 3031 3032 3033 3033 3034 3034 3035 3035 3036 3036 3037 3037 3038 3038 3039 3039 3039 3040 3041 3041 3042 3042 3043 3043 3043 3044 3044 3045 3045 3046 3046 3047 3048 3048 3049
3014 3014 3014 3014 3015 3015 3015 3015 3016 3016 3017 3017 3018 3018 3019 3019 3020 3021 3021 3022 3023 3023 3024 3024 3025 3025 3026 3026 3027 3027 3028 3029 3029 3029 3030 3030 3031 3032 3032 3033 3034 3034 3034 3035 3035 3036 3036 3037 3037 3038 3038 3039 3039 3039 3040 3040 3041 3041 3042 3042 3043 3043 3044 3044 3045 3045 3046 3047 3047
3013 3013 3013 3013 3014 3014 3014 3014 3014 3015 3015 3016 3016 3017 3017 3018 3018 3019 3019 3020 3021 3022 3022 3023 3023 3024 3024 3024 3025 3026 3026 3027 3027 3028 3028 3029 3029 3030 3031 3031 3032 3032 3033 3033 3034 3034 3034 3035 3036 3036 3037 3037 3037 3038 3038 3039 3039 3039 3040 3040 3041 3041 3042 3043 3043 3044 3044 3045 3046
3011 3012 3012 3012 3012 3012 3013 3013 3013 3014 3014 3014 3015 3015 3016 3016 3017 3017 3018 3019 3019 3020 3020 3021 3021 3022 3023 3023 3024 3024 3024 3025 3025 3026 3027 3027 3028 3029 3029 3029 3030 3030 3031 3032 3032 3033 3033 3034 3034 3034 3035 3035 3036 3036 3036 3037 3037 3038 3038 3039 3039 3040 3040 3041 3042 3042 3043 3044 3044
3010 3010 3010 3010 3011 3011 3011 3012 3012 3012 3013 3013 3013 3014 3014 3015 3015 3016 3016 3017 3018 3018 3019 3019 3020 3020 3021 3021 3022 3022 3023 3024 3024 3024 3025 3025 3026 3027 3027 3028 3028 3029 3029 3030 3030 3031 3031 3032 3032 3033 3033 3034 3034 3034 3034 3035 3035 3036 3036 3037 3038 3038 3039 3040 3040 3041 3042 3043 3043
3009 3009 3009 3009 3009 3009 3010 3010 3010 3011 3011 3011 3012 3012 3013 3013 3014 3014 3015 3015 3016 3017 3017 3018 3018 3019 3019 3020 3020 3021 3021 3022 3022 3023 3023 3024 3024 3025 3026 3026 3027 3027 3028 3029 3029 3029 3030 3030 3030 3031 3031 3032 3032 3033 3033 3033 3034 3034 3035 3035 3036 3037 3038 3039 3039 3040 3041 3041 3042
3007 3007 3008 3008 3008 3008 3009 3009 3009 3009 3009 3010 3010 3011 3011 3012 3012 3013 3013 3014 3014 3015 3015 3016 3016 3017 3017 3018 3019 3019 3020 3020 3020 3021 3021 3022 3023 3024 3024 3025 3025 3026 3026 3027 3027 3028 3028 3029 3029 3029 3030 3030 3031 3031 3032 3032 3033 3033 3034 3034 3035 3036 3037 3038 3038 3039 3039 3040 3040
3006 3006 3006 3006 3006 3007 3007 3007 3008 3008 3008 3009 3009 3009 3009 3010 3010 3011 3012 3012 3013 3013 3014 3014 3015 3015 3016 3016 3017 3018 3018 3019 3019 3019 3020 3021 3021 3022 3023 3023 3024 3024 3025 3025 3026 3026 3027 3027 3028 3028 3029 3029 3029 3030 3030 3031 3032 3032 3033 3034 3034 3035 3036 3036 3037 3038 3038 3039 3039
3005 3005 3005 3005 3005 3005 3005 3006 3006 3006 3007 3007 3007 3008 3008 3009 3009 3009 3010 3010 3011 3012 3012 3013 3013 3014 3014 3014 3015 3016 3016 3017 3017 3018 3019 3019 3020 3020 3021 3022 3022 3023 3023 3024 3024 3025 3025 3026 3026 3027 3028 3028 3029 3029 3030 3030 3031 3031 3032 3033 3033 3034 3034 3035 3036 3036 3037 3038 3038
3003 3003 3003 3003 3004 3004 3004 3004 3004 3005 3005 3005 3006 3006 3007 3007 3008 3008 3009 3009 3009 3010 3010 3011 3011 3012 3012 3013 3014 3014 3015 3015 3016 3017 3017 3018 3019 3019 3020 3020 3021 3021 3022 3023 3023 3024 3024 3025 3025 3026 3027 3027 3028 3029 3029 3029 3030 3031 3031 3032 3032 3033 3033 3034 3034 3035 3036 3037 3038
3002 3002 3002 3002 3002 3002 3002 3003 3003 3003 3004 3004 3004 3005 3005 3006 3006 3007 3007 3008 3008 3009 3009 3009 3010 3010 3011 3011 3012 3013 3013 3014 3014 3015 3016 3016 3017 3018 3019 3019 3019 3020 3021 3022 3022 3023 3024 3024 3025 3025 3026 3027 3027 3028 3028 3029 3029 3030 3030 3031 3031 3032 3032 3033 3034 3034 3035 3036 3037
3000 3000 3000 3000 3000 3000 3001 3001 3001 3002 3002 3003 3003 3003 3004 3004 3005 3005 3006 3006 3007 3007 3008 3008 3009 3009 3009 3010 3010 3011 3012 3013 3013 3014 3014 3015 3016 3017 3017 3018 3019 3019 3020 3021 3021 3022 3023 3024 3024 3025 3025 3026 3027 3027 3028 3028 3029 3029 3029 3030 3030 3031 3032 3032 3033 3034 3035 3035 3036
2999 2999 2999 2999 2999 2999 2999 2999 3000 3000 3001 3001 3001 3002 3002 3003 3004 3004 3004 3005 3005 3006 3006 3007 3007 3008 3008 3009 3009 3010 3010 3011 3012 3013 3013 3014 3015 3015 3016 3017 3018 3018 3019 3020 3020 3021 3022 3023 3024 3024 3025 3025 3026 3026 3027 3027 3028 3028 3029 3029 3030 3030 3031 3032 3033 3034 3034 3035 3035
2997 2997 2997 2997 2997 2997 2998 2998 2999 2999 2999 2999 3000 3000 3001 3002 3002 3003 3003 3004 3004 3004 3005 3005 3006 3006 3007 3008 3008 3009 3009 3010 3011 3012 3012 3013 3014 3014 3015 3016 3017 3017 3018 3019 3020 3021 3021 3022 3023 3023 3024 3024 3025 3025 3026 3026 3027 3028 3028 3029 3029 3030 3031 3031 3032 3033 3033 3034 3034
2996 2996 2996 2995 2996 2996 2996 2997 2997 2997 2998 2998 2999 2999 2999 3000 3001 3001 3002 3002 3003 3003 3004 3004 3005 3005 3006 3006 3007 3007 3008 3009 3010 3010 3011 3012 3013 3013 3014 3015 3016 3017 3017 3018 3019 3020 3020 3021 3022 3022 3023 3023 3024 3024 3025 3026 3026 3027 3028 3028 3029 3029 3030 3031 3031 3032 3033 3033 3034
2994 2994 2994 2994 2994 2994 2995 2995 2996 2996 2996 2997 2997 2998 2998 2999 2999 3000 3000 3001 3002 3002 3003 3003 3004 3004 3004 3005 3006 3006 3007 3008 3009 3009 3010 3011 3012 3012 3013 3014 3015 3016 3017 3018 3018 3019 3019 3020 3021 3021 3022 3022 3023 3024 3024 3025 3026 3027 3027 3028 3029 3029 3030 3030 3031 3031 3032 3032 3033
2993 2993 2993 2993 2993 2993 2994 2994 2994 2995 2995 2995 2996 2996 2997 2997 2998 2999 2999 3000 3000 3001 3001 3002 3002 3003 3004 3004 3005 3005 3006 3007 3008 3009 3009 3010 3011 3011 3012 3013 3014 3015 3016 3017 3017 3018 3019 3019 3020 3020 3021 3021 3022 3023 3024 3024 3025 3026 3027 3027 3028 3029 3029 3029 3030 3030 3031 3031 3031
2992 2992 2992 2992 2992 2992 2993 2993 2993 2994 2994 2994 2995 2995 2996 2996 2997 2997 2998 2998 2999 2999 3000 3000 3001 3002 3002 3003 3004 3004 3005 3006 3007 3008 3008 3009 3010 3010 3011 3012 3013 3014 3015 3016 3016 3017 3018 3018 3019 3019 3020 3021 3021 3022 3023 3024 3024 3025 3026 3026 3027 3028 3028 3029 3029 3029 3030 3030 3030
2991 2990 2990 2991 2991 2991 2992 2992 2992 2992 2993 2993 2994 2994 2994 2995 2995 2996 2996 2997 2998 2998 2999 2999 3000 3001 3001 3002 3003 3004 3004 3005 3006 3006 3007 3008 3009 3010 3010 3011 3012 3013 3014 3014 3015 3016 3016 3017 3018 3018 3019 3020 3021 3021 3022 3023 3024 3024 3025 3025 3026 3026 3027 3027 3028 3028 3029 3029 3029